TimeEDT,TemperatureF,Dew PointF,Humidity,Sea Level PressureIn,VisibilityMPH,Wind Direction,Wind SpeedMPH,Gust SpeedMPH,PrecipitationIn,Events,Conditions,WindDirDegrees,DateUTC
12:51 AM,35.1,21.0,57,29.83,10.0,NW,4.6,-,N/A,,Overcast,310,2013-03-21 04:51:00
1:51 AM,33.1,23.0,66,29.83,10.0,NNE,3.5,-,N/A,,Overcast,20,2013-03-21 05:51:00
2:51 AM,32.0,25.0,75,29.82,10.0,NNE,5.8,-,0.00,,Overcast,20,2013-03-21 06:51:00
3:51 AM,30.9,24.1,76,29.80,10.0,North,3.5,-,N/A,,Overcast,360,2013-03-21 07:51:00
4:06 AM,32.0,24.8,75,29.78,10.0,North,3.5,-,N/A,,Overcast,360,2013-03-21 08:06:00
4:38 AM,30.2,21.2,69,29.78,10.0,North,8.1,-,N/A,,Overcast,350,2013-03-21 08:38:00
4:51 AM,30.9,19.9,64,29.79,10.0,North,8.1,-,N/A,,Overcast,350,2013-03-21 08:51:00
5:51 AM,30.9,19.0,61,29.78,10.0,North,10.4,-,N/A,,Overcast,350,2013-03-21 09:51:00
6:51 AM,30.0,18.0,61,29.79,10.0,NNW,4.6,-,N/A,,Overcast,340,2013-03-21 10:51:00
7:51 AM,30.0,18.0,61,29.80,10.0,North,5.8,-,N/A,,Overcast,360,2013-03-21 11:51:00
8:51 AM,30.9,16.0,54,29.79,10.0,NNW,8.1,-,N/A,,Overcast,330,2013-03-21 12:51:00
9:51 AM,30.9,14.0,50,29.79,10.0,North,9.2,-,N/A,,Overcast,350,2013-03-21 13:51:00
10:51 AM,32.0,15.1,50,29.77,10.0,NNW,8.1,-,N/A,,Overcast,330,2013-03-21 14:51:00
11:51 AM,34.0,12.9,42,29.75,10.0,NNW,6.9,16.1,N/A,,Overcast,340,2013-03-21 15:51:00
12:51 PM,35.1,10.9,37,29.73,10.0,WNW,10.4,16.1,N/A,,Overcast,300,2013-03-21 16:51:00
1:51 PM,37.0,10.9,34,29.72,10.0,North,8.1,-,N/A,,Overcast,350,2013-03-21 17:51:00
2:51 PM,35.1,10.0,35,29.69,10.0,West,12.7,-,N/A,,Mostly Cloudy,280,2013-03-21 18:51:00
3:51 PM,35.1,10.9,37,29.69,10.0,NW,11.5,-,N/A,,Mostly Cloudy,320,2013-03-21 19:51:00
4:51 PM,35.1,10.0,35,29.68,10.0,NNW,11.5,19.6,N/A,,Overcast,330,2013-03-21 20:51:00
5:51 PM,35.1,10.0,35,29.70,10.0,West,11.5,-,N/A,,Overcast,280,2013-03-21 21:51:00
6:51 PM,33.1,9.0,37,29.73,10.0,NNW,8.1,18.4,N/A,,Overcast,340,2013-03-21 22:51:00
7:51 PM,30.0,17.1,59,29.75,10.0,NNW,9.2,-,N/A,,Mostly Cloudy,340,2013-03-21 23:51:00
8:51 PM,30.0,12.0,47,29.77,10.0,WNW,4.6,-,N/A,,Overcast,300,2013-03-22 00:51:00
9:51 PM,28.9,10.9,47,29.78,10.0,WNW,9.2,-,N/A,,Clear,290,2013-03-22 01:51:00
10:51 PM,28.0,10.0,47,29.78,10.0,West,6.9,-,N/A,,Clear,270,2013-03-22 02:51:00
11:51 PM,28.0,10.9,49,29.79,10.0,West,6.9,-,N/A,,Clear,260,2013-03-22 03:51:00